Location: Hermaringen
(48.5952°N, 10.2585°E)
Time: 13:36:38
(UTC+00:00)

Meteor 2-1 Rocket - Visible Passes

Search period start: 14 February 2026 00:00
Search period end: 24 February 2026 00:00
Orbit: 824 x 910 km, 81.3° (Epoch: 13 February)

Date Brightness Start Highest point End Pass type
(mag) Time Alt. Az. Time Alt. Az. Time Alt. Az.
14 Feb 6.6 05:38:40 10° SE 05:43:13 27° E 05:47:50 10° NNE visible
14 Feb 5.4 17:57:38 10° NNW 18:03:15 50° W 18:08:54 10° SSW visible
15 Feb 6.6 05:31:31 10° SE 05:36:05 27° E 05:40:44 10° NNE visible
15 Feb 5.4 17:50:31 10° NNW 17:56:07 49° W 18:01:46 10° SSW visible
16 Feb 6.6 05:24:21 10° SE 05:28:57 28° E 05:33:37 10° NNE visible
16 Feb 5.5 17:43:24 10° NNW 17:49:00 49° W 17:54:39 10° SSW visible
17 Feb 6.5 05:17:11 10° SE 05:21:49 28° E 05:26:31 10° NNE visible
17 Feb 5.5 17:36:17 10° NNW 17:41:53 48° W 17:47:31 10° SSW visible
18 Feb 6.5 05:10:02 10° SE 05:14:41 28° E 05:19:25 10° NNE visible
18 Feb 5.6 17:29:10 10° NNW 17:34:46 48° W 17:40:24 10° SSW visible
19 Feb 6.5 05:02:52 10° SE 05:07:33 29° E 05:12:19 10° NNE visible
19 Feb 5.6 17:22:03 10° NNW 17:27:39 47° W 17:33:16 10° SSW visible
20 Feb 6.4 04:55:42 10° SE 05:00:25 29° E 05:05:13 10° NNE visible
20 Feb 5.7 17:14:55 10° NNW 17:20:31 47° W 17:26:09 10° SSW visible
21 Feb 6.4 04:48:33 10° SSE 04:53:16 29° E 04:58:07 10° NNE visible
22 Feb 6.3 04:41:23 10° SSE 04:46:08 30° E 04:51:00 10° NNE visible
23 Feb 6.3 04:34:13 10° SSE 04:39:00 30° E 04:43:54 10° NNE visible
